Temperature
19 20 19 18 17 16 16 16 16 16 15 15 15 15 15 14 14 14 14 14 14 14 14 13 14 13 13 13 13 13 13 14 14 14 14 14 14 14 14 13 13 12 13
20 20 18 18 17 16 16 16 16 16 15 15 15 14 14 14 14 13 13 13 13 13 13 13 13 13 13 13 13 13 13 14 14 13 13 13 13 13 14 14 13 13 13
20 20 18 17 17 16 16 16 16 15 15 15 14 14 13 13 13 13 12 12 13 13 13 13 13 13 13 13 13 13 14 14 13 13 13 12 12 13 14 14 14 13 13
20 20 19 18 17 16 16 16 16 15 15 14 14 13 13 13 13 13 13 12 13 13 13 13 13 13 13 13 14 14 14 13 13 13 12 12 12 13 13 14 14 13 13
19 19 19 18 17 16 16 16 16 15 15 14 13 13 13 13 13 13 13 13 13 13 13 13 13 13 13 13 14 14 14 13 13 12 12 12 13 13 13 14 13 13 13
18 18 18 18 17 16 16 16 16 15 15 14 13 13 13 13 14 14 14 14 14 13 13 13 14 13 14 14 14 14 14 13 13 12 12 12 13 13 13 13 13 13 13
17 18 18 17 17 16 16 16 16 15 15 14 14 13 13 14 14 14 14 15 14 14 14 14 14 14 14 14 14 14 14 13 13 12 12 12 12 13 13 13 13 13 13
17 18 18 17 16 16 16 16 16 16 15 14 14 14 13 14 14 14 15 15 14 14 14 14 14 14 14 14 14 14 14 13 13 12 12 12 12 13 13 13 13 13 13
17 17 17 17 16 16 16 16 16 16 15 15 14 14 14 14 14 14 14 15 14 14 14 14 14 14 14 14 14 14 13 13 13 12 12 12 12 12 12 12 12 12 12
17 17 17 17 16 16 16 16 16 15 15 15 15 15 14 14 14 14 14 14 14 14 14 14 14 14 14 13 13 13 13 13 12 12 12 12 12 12 12 12 12 12 12
17 16 16 16 16 16 16 15 15 15 15 15 15 15 15 14 14 14 14 14 14 14 14 14 13 13 13 13 13 13 13 12 12 12 12 12 12 12 12 12 12 12 12
17 17 16 15 15 15 15 15 15 15 16 15 15 15 14 14 13 14 14 14 14 14 13 13 13 13 13 13 12 12 12 12 12 12 12 12 12 11 11 11 11 11 11
17 17 16 16 15 15 15 15 15 15 15 15 15 15 14 13 13 13 13 14 13 13 13 13 13 13 12 12 12 12 12 12 12 12 12 12 11 11 11 11 11 10 10
18 17 17 16 16 15 15 15 14 14 14 14 14 14 14 13 13 13 13 13 13 13 13 12 12 12 12 12 12 12 12 12 11 12 12 11 11 10 10 10 10 10 10
19 18 17 16 16 15 15 15 14 14 14 14 14 13 13 13 13 13 13 13 12 12 12 12 12 12 12 12 12 12 12 11 11 11 11 11 10 10 9 9 9 9 9
20 19 18 17 16 16 15 15 15 14 14 14 14 14 13 13 13 13 13 13 13 12 12 12 12 12 12 12 12 12 11 11 10 10 10 10 10 9 9 9 8 8 8
20 19 18 18 17 16 15 15 15 15 14 14 14 14 14 13 13 13 13 13 13 13 12 12 12 12 12 12 12 12 11 11 10 9 9 9 9 9 9 8 8 8 8
20 19 19 18 17 16 16 15 15 15 14 14 14 14 14 13 13 13 13 13 13 13 13 12 12 12 12 12 12 11 11 11 10 9 8 8 9 8 8 8 8 8 8
20 19 19 18 17 17 16 15 15 15 14 14 14 14 14 13 13 13 13 13 13 13 12 12 12 12 12 12 12 11 11 10 10 9 8 8 8 8 8 8 7 7 7
20 19 19 18 18 17 16 15 15 15 14 14 14 14 14 13 13 13 13 13 13 12 12 12 12 12 12 11 11 11 10 10 9 8 8 7 7 7 7 7 7 7 6
20 19 19 18 18 17 16 16 15 15 14 14 14 13 13 13 13 13 13 13 13 12 12 12 12 12 11 11 11 10 9 9 8 8 7 7 6 6 6 6 6 6 6
19 19 19 18 18 17 17 16 16 15 14 14 14 13 13 13 13 13 13 13 12 12 12 11 11 11 11 10 10 10 9 8 7 7 7 6 6 6 5 5 5 5 5
18 18 18 18 18 17 16 16 15 14 14 13 13 13 13 13 13 13 12 12 12 11 11 11 11 11 10 10 9 9 8 7 7 7 6 5 5 4 4 4 4 4 4
18 18 18 18 17 17 16 15 15 15 15 14 14 13 13 12 12 12 12 12 11 11 11 10 10 10 10 9 9 8 7 6 6 6 5 5 4 3 3 3 3 3 2
17 17 17 17 17 16 16 15 15 15 15 15 13 12 12 12 12 12 11 11 11 10 10 10 10 9 9 8 8 7 6 5 4 3 4 4 4 3 3 2 2 2 1
16 16 17 16 16 16 15 15 15 14 15 15 14 12 12 12 11 11 11 10 10 10 10 10 9 9 8 7 7 6 5 5 3 2 2 2 2 3 2 2 1 0 -0
Wind_Speed
13 16 20 19 18 17 16 15 15 15 16 16 16 16 15 14 13 12 11 10 10 10 8 7 6 8 10 12 12 12 12 10 8 6 4 4 6 7 7 8 10 8 8
17 19 20 19 18 17 16 15 15 14 15 15 15 15 14 13 12 11 10 10 11 12 12 11 11 12 13 14 13 12 10 8 5 4 3 1 3 6 7 8 8 7 7
19 20 20 20 19 18 17 16 15 14 14 14 14 14 13 12 11 11 10 11 12 13 13 14 14 14 14 13 12 10 9 7 4 7 8 4 5 6 6 6 6 5 5
18 19 19 20 19 18 17 16 15 14 14 14 14 14 13 12 11 11 11 11 11 12 13 14 14 14 13 12 10 9 7 5 6 9 6 6 7 7 6 6 5 5 6
16 18 21 21 20 18 17 16 15 14 13 13 14 14 13 12 12 11 11 11 11 11 12 12 12 12 11 10 8 7 5 5 8 10 4 5 10 7 6 6 6 6 6
16 18 21 21 20 19 17 16 15 14 14 14 14 14 13 13 12 12 11 11 10 10 11 11 11 10 9 8 7 5 5 7 11 7 4 9 10 8 7 6 6 6 7
16 18 20 21 20 19 17 16 15 15 14 14 14 14 13 13 12 12 11 10 9 9 10 9 9 8 7 6 5 4 4 7 10 6 6 11 9 7 7 8 8 8 8
17 17 19 20 20 19 17 16 15 15 14 14 14 13 13 12 12 11 10 9 9 8 8 8 7 7 6 5 4 4 4 7 8 7 9 11 10 9 9 9 10 10 11
17 16 14 17 17 18 18 16 15 15 14 14 13 13 12 12 11 11 10 8 8 7 7 6 6 6 5 4 3 3 5 8 9 6 10 11 11 10 10 10 11 12 13
14 16 13 15 16 15 15 16 16 15 14 13 13 14 13 13 12 11 10 8 7 7 6 6 5 5 4 3 1 3 6 9 6 7 11 11 10 9 10 11 12 13 14
11 13 14 13 13 16 16 16 16 15 14 14 13 14 14 13 13 11 11 10 8 7 6 5 4 3 3 3 2 3 6 7 5 11 11 10 9 9 10 11 12 13 13
9 11 13 13 12 13 14 15 14 13 14 14 13 14 13 12 12 13 14 12 9 8 7 5 4 4 4 4 3 3 5 10 10 11 11 11 9 10 11 12 12 13 13
9 9 11 13 12 10 8 12 11 12 13 14 16 17 14 9 12 13 10 10 9 9 7 6 5 2 3 4 3 5 7 8 9 12 12 12 11 10 11 12 12 12 12
13 11 10 12 12 11 9 8 8 7 9 9 13 18 11 5 6 7 7 9 9 7 5 3 2 5 5 5 7 8 8 7 8 11 13 13 12 11 11 11 12 12 12
14 15 12 10 12 11 10 7 6 5 7 9 9 13 11 5 4 4 4 6 6 7 6 3 4 5 4 6 6 6 4 5 6 11 12 14 12 11 11 11 11 12 12
11 15 14 12 11 11 10 8 7 6 8 9 8 10 12 9 5 4 4 4 5 7 6 5 5 3 4 4 4 4 4 5 6 11 13 12 11 10 9 10 11 11 12
9 12 15 15 13 12 11 11 7 6 8 6 8 11 12 11 8 6 5 5 5 8 8 7 5 5 3 3 2 3 3 4 3 6 11 12 10 8 7 8 9 11 12
9 10 13 14 14 13 11 10 8 6 6 5 9 11 12 12 12 8 6 5 8 9 7 4 4 3 4 4 3 3 2 2 2 5 7 9 9 6 4 5 8 10 11
11 10 12 13 14 13 11 9 8 7 7 5 8 8 11 12 14 9 5 6 9 6 5 5 5 4 4 4 3 1 1 1 2 2 3 7 7 3 1 3 6 9 11
12 12 12 13 14 12 10 8 7 7 6 5 5 7 11 11 14 11 6 7 9 6 5 5 5 4 3 3 4 1 1 2 1 2 1 3 6 4 1 3 5 8 11
11 11 12 13 14 12 10 10 9 7 6 5 4 8 10 12 14 10 7 7 6 6 6 6 4 5 3 4 3 2 1 1 2 3 2 0 1 3 1 3 5 7 9
10 10 10 12 14 14 11 10 7 7 6 5 4 6 10 12 13 11 8 7 7 7 7 6 4 3 2 4 3 2 3 2 2 2 2 2 1 0 1 4 6 8 9
11 10 10 11 12 13 13 10 9 8 6 4 5 5 7 11 12 12 10 8 7 7 6 6 5 4 2 2 4 3 2 1 4 3 2 1 1 1 2 4 6 8 10
11 10 10 11 12 13 15 14 16 11 8 6 6 6 8 10 11 12 12 10 8 7 7 6 5 4 3 2 1 2 2 2 0 4 4 3 2 3 4 4 6 9 11
9 9 10 10 11 13 15 17 16 12 8 10 10 11 9 8 9 11 12 10 9 7 7 7 5 4 3 3 2 1 1 0 2 2 5 5 5 4 5 5 6 9 11
7 7 7 10 11 12 15 17 16 16 16 17 15 13 10 8 8 9 11 9 8 7 7 6 5 6 5 3 2 1 1 0 1 1 3 4 5 5 6 6 6 7 10
Wind_Direction
125 134 141 136 130 126 122 119 116 114 114 112 110 106 102 97 93 89 81 74 63 58 65 78 86 101 99 94 91 83 75 67 59 52 53 66 66 52 37 22 14 36 53
129 136 140 135 131 126 122 119 117 117 117 116 113 109 104 99 95 91 86 79 67 63 69 74 84 92 92 90 87 82 74 63 42 6 334 283 96 63 38 22 17 18 27
130 136 139 135 131 127 123 119 118 119 119 119 117 113 107 102 98 95 91 83 72 70 72 74 79 83 86 86 82 76 66 49 5 329 308 249 136 70 42 20 6 4 2
131 140 140 136 133 129 125 122 121 120 120 120 120 116 111 107 102 98 95 89 81 78 76 76 80 80 82 82 77 70 57 28 338 322 337 68 98 69 40 17 3 350 341
135 140 137 138 134 131 129 127 125 124 125 124 122 118 115 110 105 101 99 94 90 86 84 82 83 82 81 77 72 63 42 355 324 304 295 84 84 55 30 12 355 342 332
135 131 140 139 137 134 133 132 130 130 128 127 126 123 119 114 110 107 105 102 97 93 90 88 85 84 81 77 70 55 24 339 319 312 54 78 75 42 23 6 350 340 327
133 131 143 140 139 138 137 137 137 136 135 134 133 130 126 121 116 114 113 109 103 97 92 90 88 86 83 75 62 42 7 329 310 313 69 76 61 37 20 15 13 8 359
129 133 143 143 143 142 142 143 144 143 143 142 141 139 133 128 125 124 121 115 107 100 94 90 89 86 80 67 51 26 345 321 322 343 77 73 49 31 24 28 25 23 24
130 134 143 147 147 147 147 148 149 149 149 149 147 142 136 134 135 134 130 123 113 104 97 93 93 91 86 76 50 357 319 309 302 322 67 58 41 31 29 31 33 36 37
134 141 151 155 155 154 153 154 154 154 154 154 148 141 140 144 146 147 142 132 124 116 109 104 103 104 108 106 67 311 308 304 298 60 66 50 38 33 39 44 46 47 45
144 150 158 160 162 161 161 161 157 158 160 155 149 153 157 167 165 156 144 139 134 130 125 125 134 154 162 175 218 291 306 315 48 77 57 47 42 45 53 55 51 46 43
160 160 161 164 165 164 162 159 165 167 167 172 171 175 191 196 168 146 142 144 147 147 146 158 181 218 215 190 230 288 2 10 44 77 55 54 56 61 63 59 53 46 41
179 177 168 169 167 164 156 165 171 175 174 194 185 186 201 170 134 140 149 155 163 167 175 187 202 211 74 75 24 42 39 21 50 76 58 63 64 65 64 58 50 43 36
179 184 182 172 169 167 163 171 170 173 173 193 184 183 187 153 153 159 161 168 170 166 155 150 129 89 54 56 46 43 31 27 65 90 71 72 70 67 62 55 46 38 29
180 178 184 179 173 173 170 173 173 171 171 180 173 176 163 142 161 146 136 135 130 126 119 88 68 67 46 43 44 49 31 31 62 98 91 83 78 69 61 51 40 30 20
186 175 177 181 179 177 174 173 177 171 169 167 164 173 160 156 157 137 125 110 102 97 95 86 75 66 58 46 25 27 25 33 66 107 116 100 91 78 61 46 32 21 10
196 178 174 179 182 181 179 177 179 170 168 160 163 173 164 157 149 131 127 119 113 109 94 76 67 61 58 21 14 46 40 36 45 112 125 125 114 95 68 41 21 9 360
204 187 178 178 181 183 182 178 176 171 163 158 160 167 166 158 144 128 126 124 117 105 94 83 63 63 55 23 5 12 10 65 24 95 112 119 112 95 64 27 8 355 348
206 196 182 173 177 180 178 174 171 165 161 158 156 159 161 151 139 130 125 121 113 99 90 89 60 55 48 12 322 287 353 74 89 88 106 118 115 102 350 339 353 345 339
207 199 185 174 174 175 171 166 159 156 158 153 146 148 149 143 135 125 118 114 111 106 104 104 105 74 46 352 314 313 93 96 115 138 119 140 158 183 237 348 356 350 339
210 202 191 178 175 173 173 172 170 165 153 140 136 136 137 132 126 123 118 112 113 117 118 116 112 96 45 357 355 340 287 206 207 171 170 139 206 196 186 349 358 349 334
219 204 195 183 177 176 177 172 162 140 122 106 98 104 117 119 122 125 120 119 116 113 101 96 95 99 67 35 38 6 349 327 305 228 177 196 244 41 14 344 338 325 319
225 212 203 193 182 174 165 150 130 107 97 101 105 102 105 115 119 125 123 119 116 112 110 103 99 101 117 67 54 81 92 298 321 314 267 224 233 309 302 303 301 302 307
224 215 206 197 186 173 163 160 158 162 159 156 138 123 115 117 121 125 125 121 115 113 115 113 100 102 107 114 85 63 111 125 63 318 319 324 354 333 309 300 300 294 292
227 213 207 199 188 175 169 165 165 161 141 134 132 129 125 123 124 127 125 121 119 117 115 107 97 84 96 101 97 75 53 28 205 217 284 305 325 317 318 303 292 285 280
237 219 207 196 187 175 168 165 167 159 149 147 148 144 138 133 128 126 124 121 117 118 119 115 108 88 83 85 73 81 115 159 315 277 278 301 299 292 302 287 280 277 278
Height
1495 1497 1499 1501 1503 1505 1507 1509 1511 1512 1514 1515 1516 1517 1518 1519 1520 1521 1521 1522 1523 1524 1524 1525 1526 1527 1528 1529 1530 1531 1531 1532 1532 1532 1532 1533 1533 1533 1534 1534 1534 1535 1535
1493 1496 1499 1501 1503 1505 1507 1509 1511 1512 1514 1515 1516 1517 1518 1519 1519 1520 1521 1521 1522 1523 1524 1525 1526 1528 1529 1530 1531 1532 1532 1532 1533 1533 1533 1533 1534 1534 1534 1534 1534 1535 1535
1493 1496 1498 1501 1503 1506 1507 1509 1510 1512 1513 1515 1516 1517 1518 1518 1519 1520 1520 1521 1522 1523 1525 1526 1527 1529 1530 1531 1532 1532 1533 1533 1533 1534 1534 1533 1534 1535 1534 1534 1535 1535 1535
1493 1496 1498 1501 1503 1506 1507 1509 1510 1512 1513 1515 1516 1517 1518 1518 1519 1520 1520 1521 1522 1524 1525 1527 1528 1530 1531 1532 1533 1533 1534 1534 1534 1534 1535 1535 1535 1535 1535 1534 1534 1534 1535
1494 1496 1498 1501 1504 1506 1507 1509 1510 1512 1513 1515 1516 1517 1518 1519 1519 1520 1521 1521 1523 1524 1526 1528 1529 1531 1532 1533 1533 1534 1534 1535 1535 1535 1536 1536 1536 1535 1535 1534 1534 1534 1534
1495 1496 1499 1501 1504 1506 1508 1509 1510 1512 1513 1515 1516 1518 1519 1520 1520 1521 1522 1522 1524 1525 1527 1528 1530 1531 1532 1533 1534 1534 1535 1535 1535 1536 1537 1536 1536 1535 1535 1534 1534 1534 1534
1495 1496 1500 1502 1504 1506 1507 1509 1510 1512 1513 1515 1516 1518 1519 1520 1521 1522 1523 1524 1525 1526 1528 1529 1531 1532 1533 1534 1534 1535 1535 1535 1536 1536 1537 1536 1536 1535 1535 1534 1534 1534 1534
1495 1496 1500 1502 1504 1506 1507 1509 1510 1512 1513 1515 1517 1518 1520 1521 1522 1523 1524 1525 1526 1528 1529 1530 1531 1532 1533 1534 1535 1535 1535 1535 1535 1536 1536 1535 1535 1534 1534 1533 1533 1533 1532
1496 1496 1499 1501 1503 1505 1507 1509 1510 1512 1513 1515 1517 1519 1520 1522 1523 1524 1525 1527 1528 1529 1530 1531 1532 1533 1534 1534 1535 1535 1535 1535 1536 1536 1535 1534 1534 1533 1533 1532 1531 1531 1531
1496 1496 1499 1501 1503 1505 1507 1508 1510 1512 1513 1515 1517 1519 1521 1522 1524 1525 1526 1527 1529 1530 1531 1531 1532 1533 1534 1534 1534 1535 1535 1535 1535 1534 1533 1533 1532 1531 1531 1530 1530 1529 1529
1496 1497 1498 1499 1502 1504 1506 1508 1510 1511 1513 1515 1517 1519 1521 1523 1524 1526 1527 1528 1529 1530 1531 1532 1532 1533 1533 1534 1534 1534 1534 1534 1534 1532 1532 1531 1530 1529 1529 1528 1527 1527 1526
1495 1496 1497 1499 1501 1503 1504 1506 1509 1510 1512 1515 1517 1519 1521 1522 1524 1525 1527 1528 1529 1530 1531 1531 1532 1532 1532 1532 1533 1533 1533 1533 1532 1529 1530 1529 1528 1527 1526 1526 1525 1525 1524
1492 1495 1496 1498 1500 1501 1503 1505 1507 1509 1511 1513 1516 1519 1520 1523 1524 1525 1527 1527 1528 1529 1530 1531 1531 1531 1532 1532 1532 1531 1531 1531 1529 1527 1527 1527 1526 1525 1524 1523 1523 1522 1521
1488 1491 1494 1496 1498 1500 1501 1503 1505 1507 1509 1512 1515 1517 1520 1522 1523 1525 1526 1526 1527 1528 1529 1530 1530 1530 1530 1530 1530 1529 1529 1528 1526 1525 1524 1524 1523 1522 1522 1521 1520 1520 1519
1485 1486 1490 1493 1495 1497 1499 1502 1504 1506 1508 1511 1514 1516 1518 1520 1522 1523 1525 1526 1527 1527 1528 1529 1529 1529 1529 1528 1528 1527 1526 1525 1524 1522 1522 1521 1520 1520 1519 1518 1518 1517 1516
1482 1483 1485 1489 1492 1494 1497 1499 1501 1504 1506 1509 1511 1514 1516 1518 1520 1522 1523 1524 1525 1526 1527 1527 1527 1527 1527 1526 1526 1525 1524 1523 1522 1520 1519 1518 1518 1517 1517 1516 1516 1515 1514
1479 1481 1482 1484 1488 1490 1493 1495 1498 1501 1503 1506 1508 1511 1513 1516 1518 1520 1521 1522 1523 1524 1525 1525 1525 1525 1525 1524 1523 1522 1522 1521 1520 1518 1516 1515 1515 1515 1515 1514 1513 1512 1511
1475 1477 1478 1480 1483 1486 1489 1492 1494 1497 1500 1502 1504 1507 1510 1513 1515 1516 1518 1520 1521 1522 1523 1523 1523 1523 1523 1522 1521 1520 1519 1518 1517 1516 1515 1513 1513 1512 1512 1512 1511 1509 1508
1469 1472 1474 1475 1478 1481 1484 1488 1490 1493 1496 1499 1501 1504 1507 1509 1511 1513 1515 1516 1518 1519 1520 1521 1521 1521 1521 1520 1519 1517 1516 1515 1514 1514 1513 1512 1511 1511 1510 1508 1507 1506 1504
1462 1465 1468 1470 1472 1476 1479 1483 1486 1489 1492 1495 1498 1500 1503 1505 1508 1510 1512 1513 1515 1516 1517 1518 1519 1519 1518 1517 1516 1515 1514 1513 1512 1511 1511 1510 1509 1508 1507 1505 1504 1502 1501
1455 1458 1461 1463 1466 1469 1473 1476 1479 1482 1486 1490 1493 1496 1499 1501 1504 1506 1508 1510 1512 1514 1515 1516 1516 1516 1516 1515 1514 1512 1511 1511 1510 1509 1508 1508 1507 1505 1504 1503 1501 1499 1497
1447 1450 1454 1456 1459 1462 1466 1469 1473 1477 1481 1484 1488 1491 1494 1496 1499 1502 1505 1507 1509 1510 1512 1513 1513 1513 1513 1512 1512 1510 1509 1509 1507 1507 1506 1505 1504 1503 1501 1500 1498 1495 1493
1440 1443 1447 1450 1453 1456 1460 1463 1467 1470 1474 1478 1482 1485 1488 1491 1495 1498 1501 1504 1506 1507 1509 1510 1511 1510 1510 1510 1509 1509 1508 1506 1506 1505 1503 1502 1501 1499 1498 1496 1493 1490 1488
1434 1438 1440 1444 1447 1451 1453 1455 1458 1462 1465 1470 1474 1478 1482 1487 1491 1494 1498 1500 1502 1505 1506 1507 1508 1507 1507 1507 1506 1505 1506 1505 1504 1501 1500 1499 1497 1495 1493 1491 1488 1485 1482
1429 1431 1434 1437 1441 1444 1446 1448 1452 1456 1460 1464 1469 1473 1478 1482 1487 1490 1494 1497 1499 1501 1503 1504 1505 1505 1505 1504 1503 1503 1502 1501 1500 1498 1495 1494 1492 1491 1488 1486 1483 1480 1477
1423 1424 1427 1430 1433 1437 1440 1442 1446 1449 1453 1457 1462 1466 1472 1477 1482 1486 1489 1493 1496 1498 1500 1501 1502 1502 1502 1502 1501 1500 1499 1498 1496 1495 1492 1488 1485 1483 1481 1480 1477 1474 1472